Tracking 23752 objects as of 23-Oct-2021
HD Live streaming from Space Station
objects crossing your sky now

COSMOS 2128

Track COSMOS 2128 now!
10-day predictions
COSMOS 2128 is classified as:


NORAD ID: 21103
Int'l Code: 1991-009D
Perigee: 1,452.8 km
Apogee: 1,474.7 km
Inclination: 74.0 °
Period: 115.0 minutes
Semi major axis: 7834 km
RCS: 0.6873 m2 (medium)
Launch date: February 12, 1991
Source: Commonwealth of Independent States (former USSR) (CIS)
Launch site: PLESETSK MISSILE AND SPACE COMPLEX (PKMTR)
aabbcc
Your satellite tracking list
Your tracking list is empty




NASA's NSSDC Master Catalog

Two Line Element Set (TLE):
1 21103U 91009D   21295.51852193  .00000002  00000-0  11203-3 0  9991
2 21103  74.0337   3.3307 0014032 120.6568 239.5869 12.51887230402653
Source of the keplerian elements: AFSPC